Location: Canet
(43.3261°N, 5.3723°E)
Time: 19:17:39
(UTC+00:00)

SMAP - Pass Details

Date: 24 January 2021
Orbit: 681 x 683 km, 98.1° (Epoch: 08 March)

Event Time Altitude Azimuth Distance (km) Brightness Sun altitude
Rises 17:22:39 0° 178° (S) 3,030 6.6 -8.0°
Reaches altitude 10° 17:24:56 10° 183° (S) 2,119 5.9 -8.4°
Maximum altitude 17:29:28 53° 260° (W) 840 4.0 -9.2°
Drops below altitude 10° 17:34:02 10° 337° (NNW) 2,135 5.7 -10.0°
Sets 17:36:20 0° 343° (NNW) 3,056 6.4 -10.4°
